Pineville, MO (64856)

3:34 PM CDT on August 04, 2015 (GMT -0500)
Berrydale Place | | Change Station
CLOSE
Current Station
Personal Weather Station
Location: Bella Vista, AR
Elevation: 1220 ft
Nearby Weather Stations

Elev 1220 ft 36.46 °N, 94.31 °W | Updated 4 seconds ago

Overcast
Overcast
80.8 °F
Feels Like 83 °F
N
0.0
Wind Variable Wind from SW
Gusts 0.0 mph

Today
High -- | Low -- °F
--% Chance of Precip.
Yesterday
High -- | Low -- °F
Precip. -- in
6:25 AM 8:20 PM
Waning Gibbous, 74% visible
Pressure 30.04 in
Visibility 10.0 miles
Clouds Few 12000 ft
Heat Index 83 °F
Dew Point 66 °F
Humidity 61%
Rainfall 0.00 in
Snow Depth Not available.
UV 1.0 out of 12
Pollen 6.50 out of 12
Air Quality Not available.
Flu Activity Not available.
METAR KVBT 042015Z AUTO 30004KT 10SM FEW120 27/19 A3004 RMK AO1

More Conditions Fewer Conditions

Pressure 30.04 in
Visibility 10.0 miles
Clouds Few 12000 ft
Heat Index 83 °F
Dew Point 66 °F
Humidity 61%
Rainfall 0.00 in
Snow Depth Not available.
UV 1.0 out of 12
Pollen 6.50 out of 12
Air Quality Not available.
Flu Activity Not available.
METAR KVBT 042015Z AUTO 30004KT 10SM FEW120 27/19 A3004 RMK AO1

More Conditions Fewer Conditions

10-Day Weather Forecast

×

Almanac

Astronomy

Aug. 04, 2015 Rise Set
Actual Time
Civil Twilight
Nautical Twilight
Astronomical Twilight
Moon
Length of Visible Light
Length of Day
Tomorrow will be .
, % of the Moon is Illuminated

Today's Extremes

State Highs State Lows

Community

WunderPhotos

Upload Photos

1,843,971 photos uploaded!

WunderBlogs® & News

Nearby

Air Quality

  Air Quality AQ Index Pollutant
Not available.

Snow Depth

Station Depth Elevation

Earthquake Activity

City Distance Mag. Time & Date
Minimum magnitude displayed is 2.5.

Coastal Water Temperatures

Place Temperature

Stations

Nearby Weather Stations

Station Location Temp. Windchill Dew Point Humidity Wind Precip. Elev Updated Type